Howell, MI

8:31 PM EDT on April 29, 2017 (GMT -0400)
Livingston County

Weather History for KOZW - February, 2013

Change the Weather History Date:

Friday, February 8, 2013

  Actual Average Record
Temperature  
Mean Temperature 22 °F -  
Max Temperature 29 °F 33 °F 44 °F (1998)
Min Temperature 15 °F 19 °F 0 °F (2014)
Degree Days  
Heating Degree Days 43    
Moisture  
Dew Point 19 °F    
Average Humidity 78    
Maximum Humidity 91    
Minimum Humidity 54    
Precipitation  
Precipitation 0.00 in - - ()
Sea Level Pressure  
Sea Level Pressure 30.04 in    
Wind  
Wind Speed 9 mph (North)    
Max Wind Speed 21 mph    
Max Gust Speed 33 mph    
Visibility 6 miles    
Events Snow    
Averages and records for this station are not official NWS values.
T = Trace of Precipitation, MM = Missing Value Source: NWS Daily Summary

Daily Weather History Graph

Daily Weather History Graph

Search for Another Location

Airport or City:

Trip Planner

Search our weather history database for the weather conditions in past years. The results will help you decide how hot, cold, wet, or windy it might be!

Date:

Astronomy

Feb. 08, 2013 Rise Set
Actual Time 7:41 AM EST 5:59 PM EST
Civil Twilight 7:12 AM EST 6:28 PM EST
Nautical Twilight 6:39 AM EST 7:01 PM EST
Astronomical Twilight 6:06 AM EST 7:34 PM EST
Moon 6:10 AM EST (2/8) 4:30 PM EST (2/8)
Length of Visible Light 11h 16m
Length of Day
10h 17m
Waning Crescent, 3% of the Moon is Illuminated
Feb 8
Waning Crescent
Feb 10
New
Feb 17
First Quarter
Feb 25
Full
Mar 4
Last Quarter

Hourly Weather History & Observations

Time (EST) Temp. Windchill Dew Point Humidity Pressure Visibility Wind Dir Wind Speed Gust Speed Precip Events Conditions
12:14 AM 28.8 °F 20.2 °F 25.5 °F 88% 29.83 in 0.2 mi ENE 9.2 mph - N/A Snow Heavy Snow
12:35 AM 28.4 °F 18.5 °F 25.7 °F 90% 29.82 in 0.5 mi ENE 11.5 mph - N/A Snow Snow
12:54 AM 28.8 °F 20.2 °F 26.1 °F 90% 29.81 in 0.2 mi ENE 9.2 mph - N/A Snow Snow
1:15 AM 28.9 °F 20.4 °F 26.2 °F 90% 29.80 in 0.5 mi ENE 9.2 mph - N/A Snow Snow
1:35 AM 28.9 °F 21.9 °F 26.4 °F 90% 29.80 in 0.8 mi ENE 6.9 mph - N/A Snow Snow
1:54 AM 29.3 °F 23.2 °F 26.6 °F 90% 29.79 in 1.5 mi NE 5.8 mph - N/A Snow Light Snow
2:15 AM 29.3 °F 22.3 °F 26.6 °F 90% 29.79 in 2.0 mi NE 6.9 mph - N/A Snow Light Snow
2:35 AM 29.3 °F 23.2 °F 26.6 °F 90% 29.79 in 1.5 mi NE 5.8 mph - N/A Snow Light Snow
2:54 AM 29.3 °F 25.6 °F 26.6 °F 90% 29.80 in 1.2 mi NNE 3.5 mph - N/A Snow Light Snow
3:15 AM 29.3 °F - 27.0 °F 91% 29.80 in 2.0 mi Calm Calm - N/A Snow Light Snow
3:34 AM 29.1 °F 24.1 °F 26.6 °F 90% 29.80 in 2.5 mi North 4.6 mph - N/A Snow Light Snow
3:54 AM 28.8 °F 21.7 °F 26.4 °F 91% 29.79 in 2.5 mi North 6.9 mph - N/A Snow Light Snow
4:34 AM 28.4 °F 20.4 °F 26.1 °F 91% 29.79 in 2.5 mi North 8.1 mph - N/A Snow Light Snow
4:54 AM 28.4 °F 21.2 °F 26.1 °F 91% 29.80 in 3.0 mi North 6.9 mph - N/A   Overcast
5:15 AM 29.1 °F 20.6 °F 26.6 °F 90% 29.81 in 3.0 mi North 9.2 mph - N/A   Overcast
5:34 AM 29.3 °F 21.5 °F 26.6 °F 90% 29.82 in 3.0 mi North 8.1 mph - N/A Snow Light Snow
5:54 AM 29.3 °F 20.2 °F 26.6 °F 90% 29.83 in 3.0 mi North 10.4 mph 18.4 mph N/A Snow Light Snow
6:15 AM 28.8 °F 19.5 °F 26.1 °F 90% 29.84 in 3.0 mi North 10.4 mph 17.3 mph N/A Snow Light Snow
6:34 AM 28.4 °F 18.5 °F 25.7 °F 90% 29.85 in 2.0 mi North 11.5 mph 19.6 mph N/A Snow Light Snow
6:55 AM 28.4 °F 18.5 °F 25.7 °F 90% 29.86 in 1.2 mi North 11.5 mph 18.4 mph N/A Snow Light Snow
7:15 AM 28.4 °F 18.0 °F 25.7 °F 90% 29.88 in 1.2 mi North 12.7 mph 20.7 mph N/A Snow Light Snow
7:34 AM 28.2 °F 18.9 °F 25.5 °F 90% 29.89 in 2.0 mi North 10.4 mph 19.6 mph N/A Snow Light Snow
7:55 AM 28.2 °F 16.8 °F 25.3 °F 89% 29.90 in 2.0 mi North 15.0 mph 26.5 mph N/A Snow Light Snow
8:15 AM 28.0 °F 16.5 °F 24.8 °F 88% 29.91 in 1.0 mi North 15.0 mph 28.8 mph N/A Snow Light Snow
8:34 AM 27.9 °F 15.5 °F 24.8 °F 88% 29.93 in 0.8 mi North 17.3 mph 24.2 mph N/A Snow Light Snow
8:55 AM 26.6 °F 14.3 °F 23.4 °F 88% 29.95 in 1.0 mi North 16.1 mph 28.8 mph N/A Snow Light Snow
9:14 AM 26.4 °F 17.3 °F 22.6 °F 86% 29.96 in 1.2 mi North 9.2 mph 33.4 mph N/A Snow Light Snow
9:35 AM 25.7 °F 15.7 °F 21.9 °F 86% 29.98 in 1.8 mi North 10.4 mph 23.0 mph N/A Snow Light Snow
9:55 AM 25.3 °F 14.1 °F 21.0 °F 84% 29.99 in 2.0 mi North 12.7 mph 24.2 mph N/A Snow Light Snow
10:14 AM 24.8 °F 12.4 °F 19.9 °F 82% 30.00 in 4.0 mi NNW 15.0 mph 27.6 mph N/A   Haze
10:35 AM 24.4 °F 11.9 °F 19.0 °F 80% 30.03 in 4.0 mi NNW 15.0 mph 28.8 mph N/A   Haze
10:54 AM 24.4 °F 9.9 °F 18.7 °F 79% 30.04 in 7.0 mi NNW 20.7 mph 26.5 mph N/A   Overcast
11:14 AM 23.9 °F 11.2 °F 17.8 °F 77% 30.05 in 5.0 mi North 15.0 mph 24.2 mph N/A   Haze
11:54 AM 23.9 °F 11.2 °F 17.1 °F 75% 30.08 in 5.0 mi NNW 15.0 mph 26.5 mph N/A   Haze
12:15 PM 24.1 °F 10.6 °F 17.1 °F 75% 30.08 in 5.0 mi NNW 17.3 mph 24.2 mph N/A   Haze
12:34 PM 23.9 °F 11.2 °F 16.7 °F 74% 30.08 in 7.0 mi North 15.0 mph 25.3 mph N/A   Overcast
12:55 PM 24.1 °F 12.5 °F 16.7 °F 73% 30.09 in 7.0 mi NNW 12.7 mph 27.6 mph N/A   Overcast
1:14 PM 24.4 °F 12.4 °F 16.7 °F 72% 30.10 in 7.0 mi NNW 13.8 mph 24.2 mph N/A   Overcast
1:34 PM 24.6 °F 12.7 °F 16.5 °F 71% 30.10 in 10.0 mi NNW 13.8 mph 23.0 mph N/A   Overcast
1:55 PM 25.2 °F 15.7 °F 16.7 °F 70% 30.11 in 10.0 mi NNW 9.2 mph 19.6 mph N/A   Overcast
2:14 PM 25.7 °F 13.5 °F 17.1 °F 70% 30.12 in 10.0 mi NNW 15.0 mph 20.7 mph N/A   Overcast
2:34 PM 26.4 °F 16.0 °F 17.4 °F 69% 30.12 in 10.0 mi North 11.5 mph 16.1 mph N/A   Overcast
2:55 PM 27.1 °F 15.4 °F 17.6 °F 67% 30.12 in 10.0 mi NNW 15.0 mph 20.7 mph N/A   Overcast
3:14 PM 27.5 °F 16.3 °F 16.7 °F 64% 30.13 in 10.0 mi NNW 13.8 mph 25.3 mph N/A   Overcast
3:34 PM 27.9 °F 16.8 °F 16.3 °F 62% 30.13 in 10.0 mi North 13.8 mph 20.7 mph N/A   Mostly Cloudy
3:54 PM 28.2 °F 16.8 °F 15.6 °F 59% 30.13 in 10.0 mi North 15.0 mph 23.0 mph N/A   Clear
4:14 PM 28.4 °F 18.5 °F 14.9 °F 57% 30.15 in 10.0 mi NNW 11.5 mph 24.2 mph N/A   Clear
4:34 PM 28.8 °F 19.5 °F 14.9 °F 56% 30.16 in 10.0 mi North 10.4 mph 19.6 mph N/A   Clear
4:54 PM 28.8 °F 19.0 °F 14.0 °F 54% 30.17 in 10.0 mi North 11.5 mph 17.3 mph N/A   Clear
5:15 PM 28.2 °F 19.5 °F 13.6 °F 54% 30.19 in 10.0 mi NNW 9.2 mph - N/A   Clear
5:34 PM 27.5 °F 17.4 °F 13.8 °F 56% 30.20 in 10.0 mi NNW 11.5 mph 16.1 mph N/A   Clear
5:54 PM 27.0 °F 18.7 °F 12.9 °F 56% 30.20 in 10.0 mi NNW 8.1 mph - N/A   Clear
6:34 PM 25.3 °F 18.5 °F 12.9 °F 59% 30.23 in 10.0 mi NNW 5.8 mph - N/A   Clear
6:55 PM 25.3 °F 18.5 °F 12.7 °F 59% 30.23 in 10.0 mi North 5.8 mph - N/A   Clear
7:15 PM 24.6 °F 16.7 °F 12.4 °F 60% 30.24 in 10.0 mi North 6.9 mph - N/A   Clear
7:34 PM 23.9 °F 16.8 °F 12.4 °F 62% 30.24 in 10.0 mi North 5.8 mph - N/A   Clear
7:55 PM 23.0 °F 18.4 °F 12.2 °F 63% 30.25 in 10.0 mi NNW 3.5 mph - N/A   Clear
8:15 PM 22.1 °F - 12.2 °F 66% 30.27 in 10.0 mi Calm Calm - N/A   Clear
8:34 PM 21.7 °F - 12.6 °F 68% 30.27 in 10.0 mi Calm Calm - N/A   Clear
8:55 PM 21.0 °F - 12.7 °F 70% 30.28 in 10.0 mi Calm Calm - N/A   Clear
9:14 PM 20.3 °F - 13.1 °F 74% 30.28 in 10.0 mi Calm Calm - N/A   Clear
9:35 PM 19.4 °F 14.3 °F 12.9 °F 76% 30.29 in 10.0 mi NNW 3.5 mph - N/A   Clear
9:55 PM 18.7 °F - 12.4 °F 76% 30.30 in 10.0 mi Calm Calm - N/A   Clear
10:14 PM 18.3 °F - 12.7 °F 79% 30.30 in 10.0 mi Calm Calm - N/A   Clear
10:35 PM 17.2 °F - 11.8 °F 79% 30.30 in 10.0 mi Calm Calm - N/A   Clear
10:54 PM 17.4 °F 12.1 °F 12.4 °F 81% 30.31 in 10.0 mi NNW 3.5 mph - N/A   Clear
11:14 PM 16.3 °F 9.2 °F 11.7 °F 82% 30.32 in 10.0 mi NW 4.6 mph - N/A   Clear
11:35 PM 15.6 °F - 11.1 °F 82% 30.32 in 10.0 mi Calm Calm - N/A   Clear
11:54 PM 15.1 °F 7.7 °F 10.9 °F 84% 30.32 in 10.0 mi NW 4.6 mph - N/A   Clear